Language: 


Des rapports , des résumés tant et plus, au choix de chacun....


Données statistiques de la station
Quotidien Rapport Février 09, 2018 Unités:  Anglais    Métrique   les deux
« Précédent Jour
Suivant Jour »
Quotidien Hebdomadaire Mensuel Annuel Actuel
  Haut: Bas: Moyen:
Température: TemperatureC °F 0.0 °F 1 °F
Pt de rosée: DewpointC °F -3.0 °F 0.2 °F
Humidité: Humidity % 77 % 91 %
Vitesse du vent: WindSpeedKMH mph 0.0 mph 9.5 mph
Rafales: WindSpeedGustKMH mph - -
Vent:- - SSW
Pression: PressurehPa in 1008.0 in -
Précipitation: 5.1 in    
Historical Graphs
 
 
Données statistiques pour Février 09, 2018
Heure Température Point de rosée Pression Vent Vitesse du vent Refales Humidité Pluie (taux horaire)
TemperatureC °F DewpointC °F PressurehPa in Calm     Humidity % HourlyPrecipMM in
00:02 0.7 °F -1.0 °F 1015.1 in SSW 8.7 mph 8.7 mph 88 % 0.0 in
00:07 0.7 °F -1.0 °F 1015.1 in SSW 8.7 mph 8.7 mph 88 % 0.0 in
00:12 0.6 °F -1.0 °F 1015.1 in SSW 8.7 mph 8.7 mph 88 % 0.0 in
00:17 0.6 °F -1.0 °F 1015.1 in SSW 11.6 mph 11.6 mph 88 % 0.0 in
00:22 0.6 °F -1.0 °F 1015.1 in SSW 9.0 mph 11.6 mph 88 % 0.0 in
00:27 0.5 °F -1.0 °F 1015.1 in South 14.3 mph 14.3 mph 88 % 0.0 in
00:32 0.5 °F -1.0 °F 1015.1 in South 14.3 mph 14.3 mph 88 % 0.0 in
00:37 0.5 °F -1.0 °F 1015.1 in SSW 10.1 mph 14.3 mph 88 % 0.0 in
00:42 0.5 °F -1.0 °F 1015.1 in SSW 10.1 mph 14.3 mph 88 % 0.0 in
00:47 0.5 °F -1.0 °F 1015.1 in SSW 12.6 mph 12.6 mph 88 % 0.0 in
00:52 0.5 °F -1.0 °F 1015.1 in SSW 12.6 mph 12.6 mph 88 % 0.0 in
00:57 0.5 °F -1.0 °F 1015.1 in SSW 9.7 mph 12.6 mph 88 % 0.0 in
01:02 0.4 °F -1.0 °F 1015.1 in SSW 9.7 mph 12.6 mph 88 % 0.0 in
01:07 0.4 °F -1.0 °F 1015.1 in SSW 9.7 mph 9.7 mph 89 % 0.0 in
01:12 0.5 °F -1.0 °F 1015.1 in SSW 9.7 mph 9.7 mph 89 % 0.0 in
01:18 0.5 °F -1.0 °F 1015.1 in SSW 9.7 mph 9.7 mph 89 % 0.0 in
01:23 0.5 °F -1.0 °F 1015.1 in SSW 9.7 mph 9.7 mph 89 % 0.0 in
01:28 0.5 °F -1.0 °F 1015.1 in SSW 9.7 mph 9.7 mph 89 % 0.0 in
01:33 0.5 °F -1.0 °F 1015.1 in SSW 9.7 mph 9.7 mph 89 % 0.0 in
01:38 0.4 °F -1.0 °F 1015.1 in SSW 9.7 mph 9.7 mph 89 % 0.0 in
01:43 0.4 °F -1.0 °F 1015.1 in SSW 9.7 mph 9.7 mph 89 % 0.0 in
01:48 0.4 °F -1.0 °F 1015.1 in SSW 9.7 mph 9.7 mph 88 % 0.0 in
01:53 0.4 °F -1.0 °F 1015.1 in SSW 10.5 mph 10.5 mph 88 % 0.0 in
01:58 0.4 °F -1.0 °F 1015.1 in SSW 10.5 mph 10.5 mph 88 % 0.0 in
02:03 0.4 °F -1.0 °F 1014.1 in SSW 10.5 mph 10.5 mph 88 % 0.0 in
02:08 0.4 °F -1.0 °F 1014.1 in SSW 10.5 mph 10.5 mph 88 % 0.0 in
02:13 0.4 °F -1.0 °F 1014.1 in SSW 10.5 mph 10.5 mph 88 % 0.0 in
02:18 0.4 °F -1.0 °F 1014.1 in SSW 10.5 mph 10.5 mph 88 % 0.0 in
02:23 0.4 °F -1.0 °F 1014.1 in SSW 10.5 mph 10.5 mph 88 % 0.0 in
02:28 0.4 °F -1.0 °F 1014.1 in SSW 10.5 mph 10.5 mph 88 % 0.0 in
02:33 0.4 °F -1.0 °F 1014.1 in SSW 10.5 mph 10.5 mph 88 % 0.0 in
02:38 0.4 °F -1.0 °F 1014.1 in South 6.1 mph 6.1 mph 88 % 0.0 in
02:43 0.4 °F -1.0 °F 1014.1 in South 6.1 mph 6.1 mph 88 % 0.0 in
02:48 0.5 °F -1.0 °F 1014.1 in South 6.1 mph 6.1 mph 87 % 0.0 in
02:53 0.5 °F -1.0 °F 1014.1 in SSW 13.0 mph 13.0 mph 87 % 0.0 in
02:59 0.5 °F -1.0 °F 1014.1 in SSW 8.7 mph 13.0 mph 87 % 0.0 in
03:04 0.5 °F -1.0 °F 1014.1 in South 12.2 mph 13.0 mph 86 % 0.0 in
03:09 0.4 °F -1.0 °F 1014.1 in South 12.2 mph 13.0 mph 86 % 0.0 in
03:14 0.4 °F -1.0 °F 1013.1 in South 7.9 mph 17.2 mph 86 % 0.0 in
03:19 0.4 °F -1.0 °F 1013.1 in South 16.6 mph 17.2 mph 86 % 0.0 in
03:24 0.4 °F -1.0 °F 1013.1 in Calm   16.6 mph 85 % 0.0 in
03:29 0.4 °F -1.0 °F 1013.1 in SSW 15.8 mph 16.6 mph 85 % 0.0 in
03:34 0.4 °F -1.0 °F 1013.1 in SSW 11.9 mph 16.3 mph 85 % 0.0 in
03:39 0.4 °F -1.0 °F 1013.1 in SSW 11.9 mph 15.8 mph 85 % 0.0 in
03:44 0.4 °F -1.0 °F 1013.1 in South 12.6 mph 17.2 mph 85 % 0.0 in
03:49 0.4 °F -1.0 °F 1013.1 in SSE 8.7 mph 18.3 mph 86 % 0.0 in
03:54 0.3 °F -1.0 °F 1013.1 in SSW 10.5 mph 18.3 mph 86 % 0.0 in
03:59 0.3 °F -1.0 °F 1013.1 in SSE 10.1 mph 16.3 mph 86 % 0.0 in
04:04 0.3 °F -1.0 °F 1013.1 in SSE 19.1 mph 19.1 mph 86 % 0.0 in
04:09 0.3 °F -1.0 °F 1013.1 in South 16.6 mph 19.1 mph 86 % 0.0 in
04:14 0.3 °F -1.0 °F 1013.1 in South 10.5 mph 19.1 mph 86 % 0.0 in
04:19 0.3 °F -1.0 °F 1013.1 in SSW 15.4 mph 15.4 mph 86 % 0.0 in
04:24 0.3 °F -1.0 °F 1013.1 in SSW 12.2 mph 15.4 mph 87 % 0.0 in
04:29 0.3 °F -1.0 °F 1013.1 in South 11.6 mph 16.3 mph 87 % 0.0 in
04:34 0.3 °F -1.0 °F 1013.1 in SSE 13.0 mph 20.6 mph 87 % 0.0 in
04:39 0.3 °F -1.0 °F 1013.1 in SSW 11.9 mph 20.6 mph 86 % 0.0 in
04:45 0.2 °F -2.0 °F 1012.1 in South 14.0 mph 16.3 mph 86 % 0.0 in
04:50 0.2 °F -2.0 °F 1012.1 in South 12.6 mph 16.3 mph 86 % 0.0 in
04:55 0.2 °F -2.0 °F 1012.1 in SSW 9.0 mph 16.9 mph 86 % 0.0 in
05:00 0.2 °F -2.0 °F 1012.1 in SSE 14.0 mph 16.9 mph 86 % 0.0 in
05:05 0.2 °F -2.0 °F 1012.1 in SSW 10.5 mph 14.0 mph 86 % 0.0 in
05:10 0.2 °F -2.0 °F 1012.1 in SSE 16.3 mph 16.6 mph 86 % 0.0 in
05:15 0.2 °F -2.0 °F 1011.1 in SSW 10.5 mph 19.1 mph 86 % 0.0 in
05:20 0.2 °F -2.0 °F 1011.1 in South 12.2 mph 19.1 mph 86 % 0.0 in
05:25 0.2 °F -2.0 °F 1011.1 in South 17.2 mph 17.2 mph 85 % 0.0 in
05:30 0.2 °F -2.0 °F 1010.0 in South 10.8 mph 17.2 mph 85 % 0.0 in
05:35 0.2 °F -2.0 °F 1010.0 in SSW 13.0 mph 17.2 mph 84 % 0.0 in
05:40 0.1 °F -2.0 °F 1010.0 in South 13.0 mph 13.0 mph 84 % 0.0 in
05:45 0.1 °F -2.0 °F 1011.1 in SSW 18.3 mph 18.3 mph 84 % 0.0 in
05:50 0.1 °F -2.0 °F 1011.1 in South 11.9 mph 18.3 mph 83 % 0.0 in
05:55 0.1 °F -2.0 °F 1011.1 in South 15.8 mph 18.3 mph 83 % 0.0 in
06:00 0.1 °F -2.0 °F 1011.1 in SSW 12.6 mph 17.2 mph 83 % 0.0 in
06:05 0.1 °F -2.0 °F 1011.1 in SSW 12.6 mph 17.2 mph 83 % 0.0 in
06:10 0.1 °F -2.0 °F 1011.1 in SSW 11.1 mph 19.5 mph 83 % 0.0 in
06:15 0.1 °F -2.0 °F 1011.1 in South 10.5 mph 21.6 mph 83 % 0.0 in
06:20 0.1 °F -2.0 °F 1011.1 in SSE 11.9 mph 21.6 mph 83 % 0.0 in
06:25 0.1 °F -2.0 °F 1011.1 in SSE 12.2 mph 20.1 mph 82 % 0.0 in
06:30 0.1 °F -2.0 °F 1011.1 in SSE 10.1 mph 19.8 mph 82 % 0.0 in
06:35 0.0 °F -3.0 °F 1011.1 in South 14.0 mph 19.8 mph 82 % 0.0 in
06:40 0.0 °F -3.0 °F 1011.1 in South 11.6 mph 19.8 mph 82 % 0.0 in
06:45 0.0 °F -3.0 °F 1011.1 in South 13.0 mph 19.1 mph 82 % 0.0 in
06:50 0.0 °F -3.0 °F 1011.1 in SSW 8.7 mph 19.1 mph 82 % 0.0 in
06:55 0.0 °F -3.0 °F 1011.1 in SSW 12.6 mph 19.1 mph 82 % 0.0 in
07:00 0.1 °F -2.0 °F 1010.0 in SSE 11.6 mph 13.0 mph 82 % 0.0 in
07:05 0.1 °F -2.0 °F 1010.0 in SSE 9.7 mph 19.8 mph 82 % 0.0 in
07:10 0.2 °F -3.0 °F 1010.0 in South 20.6 mph 20.6 mph 81 % 0.0 in
07:15 0.2 °F -3.0 °F 1010.0 in South 16.3 mph 20.6 mph 80 % 0.0 in
07:20 0.2 °F -3.0 °F 1010.0 in South 10.1 mph 20.6 mph 80 % 0.0 in
07:25 0.2 °F -3.0 °F 1010.0 in SSW 21.6 mph 21.6 mph 80 % 0.0 in
07:30 0.3 °F -3.0 °F 1009.0 in South 14.0 mph 21.6 mph 79 % 0.0 in
07:35 0.3 °F -3.0 °F 1009.0 in South 14.0 mph 21.6 mph 79 % 0.0 in
07:40 0.3 °F -3.0 °F 1009.0 in South 13.0 mph 20.6 mph 79 % 0.0 in
07:45 0.3 °F -3.0 °F 1010.0 in SSW 9.3 mph 20.6 mph 79 % 0.0 in
07:50 0.3 °F -3.0 °F 1010.0 in SSE 9.3 mph 16.6 mph 78 % 0.0 in
07:55 0.3 °F -3.0 °F 1010.0 in SW 20.1 mph 20.1 mph 78 % 0.0 in
08:00 0.3 °F -3.0 °F 1010.0 in SSE 13.7 mph 20.1 mph 78 % 0.0 in
08:05 0.3 °F -3.0 °F 1010.0 in SSE 13.7 mph 20.1 mph 78 % 0.0 in
08:10 0.4 °F -3.0 °F 1010.0 in SSE 13.7 mph 13.7 mph 78 % 0.0 in
08:15 0.4 °F -3.0 °F 1010.0 in SSW 20.9 mph 20.9 mph 78 % 0.0 in
08:20 0.4 °F -3.0 °F 1010.0 in SSW 20.9 mph 20.9 mph 78 % 0.0 in
08:25 0.4 °F -3.0 °F 1010.0 in SSW 19.1 mph 23.3 mph 78 % 0.0 in
08:30 0.4 °F -3.0 °F 1010.0 in South 17.2 mph 27.7 mph 77 % 0.0 in
08:35 0.3 °F -3.0 °F 1010.0 in SSW 9.7 mph 27.7 mph 77 % 0.0 in
08:41 0.4 °F -3.0 °F 1010.0 in SSW 16.3 mph 17.7 mph 78 % 0.0 in
08:46 0.4 °F -3.0 °F 1010.0 in SSW 10.5 mph 17.7 mph 77 % 0.0 in
08:51 0.4 °F -3.0 °F 1010.0 in SSW 10.5 mph 16.3 mph 78 % 0.0 in
08:56 0.4 °F -3.0 °F 1010.0 in SSW 10.5 mph 10.5 mph 78 % 0.0 in
09:01 0.5 °F -3.0 °F 1010.0 in SSW 10.5 mph 10.5 mph 78 % 0.0 in
09:06 0.5 °F -3.0 °F 1010.0 in SSW 16.9 mph 16.9 mph 78 % 0.0 in
09:11 0.4 °F -3.0 °F 1010.0 in SSW 12.6 mph 20.1 mph 78 % 0.0 in
09:16 0.4 °F -3.0 °F 1010.0 in SSW 12.6 mph 20.1 mph 79 % 0.0 in
09:21 0.3 °F -2.0 °F 1010.0 in SSW 12.6 mph 12.6 mph 80 % 0.0 in
09:26 0.2 °F -2.0 °F 1010.0 in SSW 12.2 mph 12.6 mph 82 % 0.0 in
09:31 0.1 °F -2.0 °F 1010.0 in SSW 12.2 mph 12.6 mph 84 % 0.0 in
09:36 0.1 °F -2.0 °F 1010.0 in SSE 10.5 mph 12.2 mph 86 % 0.0 in
09:41 0.1 °F -1.0 °F 1010.0 in SSE 10.5 mph 12.2 mph 87 % 0.0 in
09:46 0.1 °F -1.0 °F 1010.0 in SSE 10.5 mph 10.5 mph 88 % 0.0 in
09:51 0.2 °F -1.0 °F 1010.0 in SSE 10.5 mph 10.5 mph 89 % 0.0 in
09:56 0.2 °F -1.0 °F 1010.0 in SSE 10.5 mph 10.5 mph 88 % 0.0 in
10:01 0.3 °F -1.0 °F 1009.0 in SSE 10.5 mph 10.5 mph 89 % 0.0 in
10:06 0.3 °F -1.0 °F 1009.0 in SSE 10.5 mph 10.5 mph 89 % 0.0 in
10:11 0.3 °F -1.0 °F 1009.0 in SSE 10.5 mph 10.5 mph 89 % 0.0 in
10:17 0.2 °F -1.0 °F 1009.0 in SSE 10.5 mph 10.5 mph 90 % 0.0 in
10:22 0.2 °F -1.0 °F 1009.0 in SSE 10.5 mph 10.5 mph 91 % 0.0 in
10:27 0.2 °F -1.0 °F 1009.0 in SSE 10.5 mph 10.5 mph 91 % 0.0 in
10:32 0.2 °F -1.0 °F 1010.0 in SSE 10.5 mph 10.5 mph 92 % 0.0 in
10:37 0.2 °F -1.0 °F 1010.0 in SSE 10.5 mph 10.5 mph 92 % 0.0 in
10:42 0.2 °F -1.0 °F 1010.0 in SSE 10.5 mph 10.5 mph 92 % 0.0 in
10:47 0.2 °F -1.0 °F 1009.0 in SSE 10.5 mph 10.5 mph 92 % 0.0 in
10:52 0.3 °F -1.0 °F 1009.0 in SSE 10.5 mph 10.5 mph 92 % 0.0 in
10:57 0.3 °F -1.0 °F 1009.0 in SSE 10.5 mph 10.5 mph 92 % 0.0 in
11:02 0.3 °F 0.0 °F 1009.0 in SSE 10.5 mph 10.5 mph 93 % 0.0 in
11:07 0.3 °F 0.0 °F 1009.0 in SSE 10.5 mph 10.5 mph 93 % 0.0 in
11:12 0.3 °F 0.0 °F 1009.0 in SSE 10.5 mph 10.5 mph 94 % 0.0 in
11:17 0.3 °F 0.0 °F 1009.0 in SSE 10.5 mph 10.5 mph 94 % 0.0 in
11:22 0.3 °F 0.0 °F 1009.0 in SSE 10.5 mph 10.5 mph 95 % 0.0 in
11:27 0.4 °F 0.0 °F 1009.0 in SSE 10.5 mph 10.5 mph 96 % 0.0 in
11:32 0.4 °F 0.0 °F 1009.0 in SSE 10.5 mph 10.5 mph 96 % 0.0 in
11:37 0.4 °F 0.0 °F 1009.0 in SSE 10.5 mph 10.5 mph 96 % 0.0 in
11:42 0.4 °F 0.0 °F 1009.0 in SSE 10.5 mph 10.5 mph 96 % 0.0 in
11:47 0.5 °F 1.0 °F 1009.0 in SSE 10.5 mph 10.5 mph 96 % 0.0 in
11:52 0.5 °F 1.0 °F 1009.0 in SSE 10.5 mph 10.5 mph 97 % 0.0 in
11:57 0.6 °F 1.0 °F 1009.0 in SSE 10.5 mph 10.5 mph 97 % 0.0 in
12:02 0.7 °F 1.0 °F 1009.0 in SSE 10.5 mph 10.5 mph 97 % 0.0 in
12:07 0.8 °F 1.0 °F 1009.0 in SSE 10.5 mph 10.5 mph 97 % 0.0 in
12:12 0.8 °F 1.0 °F 1009.0 in SSE 10.5 mph 10.5 mph 97 % 0.0 in
12:18 0.8 °F 1.0 °F 1009.0 in SSE 10.5 mph 10.5 mph 96 % 0.0 in
12:23 0.8 °F 1.0 °F 1009.0 in SSE 10.5 mph 10.5 mph 96 % 0.0 in
12:28 0.8 °F 1.0 °F 1009.0 in SSE 10.5 mph 10.5 mph 96 % 0.0 in
12:33 0.8 °F 1.0 °F 1009.0 in SSE 10.5 mph 10.5 mph 96 % 0.0 in
12:38 0.7 °F 0.0 °F 1009.0 in SSE 10.5 mph 10.5 mph 95 % 0.0 in
12:43 0.7 °F 0.0 °F 1009.0 in SSE 10.5 mph 10.5 mph 95 % 0.0 in
12:48 0.8 °F 1.0 °F 1010.0 in SSE 10.5 mph 10.5 mph 96 % 0.0 in
12:53 0.7 °F 1.0 °F 1010.0 in SSE 10.5 mph 10.5 mph 96 % 0.0 in
12:58 0.8 °F 1.0 °F 1010.0 in SSE 10.5 mph 10.5 mph 96 % 0.0 in
13:03 0.9 °F 1.0 °F 1009.0 in SSE 10.5 mph 10.5 mph 96 % 0.0 in
13:08 0.9 °F 1.0 °F 1009.0 in SSE 10.5 mph 10.5 mph 96 % 0.0 in
13:13 0.9 °F 1.0 °F 1009.0 in SSE 10.5 mph 10.5 mph 96 % 0.0 in
13:18 0.9 °F 1.0 °F 1009.0 in SSE 10.5 mph 10.5 mph 97 % 0.0 in
13:23 1.0 °F 1.0 °F 1009.0 in SSE 10.5 mph 10.5 mph 96 % 0.0 in
13:28 1.0 °F 1.0 °F 1008.0 in SSE 10.5 mph 10.5 mph 97 % 0.0 in
13:33 1.0 °F 1.0 °F 1008.0 in SSE 10.5 mph 10.5 mph 97 % 0.0 in
13:38 1.0 °F 1.0 °F 1008.0 in SSE 10.5 mph 10.5 mph 97 % 0.0 in
13:43 1.0 °F 1.0 °F 1008.0 in SSE 10.5 mph 10.5 mph 97 % 0.0 in
13:49 1.0 °F 1.0 °F 1008.0 in SSE 10.5 mph 10.5 mph 97 % 0.0 in
13:54 1.0 °F 1.0 °F 1008.0 in SSE 10.5 mph 10.5 mph 97 % 0.0 in
13:59 1.1 °F 1.0 °F 1008.0 in SSE 10.5 mph 10.5 mph 97 % 0.0 in
14:04 1.1 °F 1.0 °F 1008.0 in SSE 10.5 mph 10.5 mph 97 % 0.0 in
14:09 1.1 °F 1.0 °F 1008.0 in SSE 10.5 mph 10.5 mph 97 % 0.0 in
14:14 1.1 °F 1.0 °F 1008.0 in SSE 10.5 mph 10.5 mph 97 % 0.0 in
14:19 1.2 °F 1.0 °F 1008.0 in SSE 10.5 mph 10.5 mph 97 % 0.0 in
14:24 1.2 °F 1.0 °F 1008.0 in SSE 10.5 mph 10.5 mph 98 % 0.0 in
14:29 1.2 °F 1.0 °F 1008.0 in SSE 10.5 mph 10.5 mph 98 % 0.0 in
14:34 1.2 °F 1.0 °F 1008.0 in SSE 10.5 mph 10.5 mph 98 % 0.0 in
14:39 1.2 °F 1.0 °F 1008.0 in SSE 10.5 mph 10.5 mph 98 % 0.0 in
14:44 1.3 °F 1.0 °F 1008.0 in SSE 10.5 mph 10.5 mph 98 % 0.0 in
14:49 1.4 °F 1.0 °F 1008.0 in SSE 10.5 mph 10.5 mph 98 % 0.0 in
14:54 1.4 °F 1.0 °F 1008.0 in SSE 10.5 mph 10.5 mph 98 % 0.0 in
14:59 1.6 °F 2.0 °F 1008.0 in SSE 10.5 mph 10.5 mph 98 % 0.0 in
15:04 1.6 °F 2.0 °F 1008.0 in SSE 10.5 mph 10.5 mph 98 % 0.0 in
15:09 1.7 °F 2.0 °F 1008.0 in SSE 10.5 mph 10.5 mph 98 % 0.0 in
15:15 1.9 °F 2.0 °F 1008.0 in SSE 10.5 mph 10.5 mph 98 % 0.0 in
15:20 2.0 °F 2.0 °F 1008.0 in SSE 10.5 mph 10.5 mph 98 % 0.0 in
15:25 2.0 °F 2.0 °F 1008.0 in SSE 10.5 mph 10.5 mph 98 % 0.0 in
15:30 2.0 °F 2.0 °F 1009.0 in SSE 10.5 mph 10.5 mph 98 % 0.0 in
15:35 2.0 °F 2.0 °F 1009.0 in SSE 10.5 mph 10.5 mph 98 % 0.0 in
15:40 2.1 °F 2.0 °F 1009.0 in SSE 10.5 mph 10.5 mph 98 % 0.3 in
15:45 2.1 °F 2.0 °F 1009.0 in SSE 10.5 mph 10.5 mph 98 % 0.3 in
15:50 2.1 °F 2.0 °F 1009.0 in SSE 10.5 mph 10.5 mph 98 % 0.3 in
15:55 2.3 °F 3.0 °F 1009.0 in SSE 10.5 mph 10.5 mph 98 % 0.5 in
16:00 2.3 °F 3.0 °F 1009.0 in SSE 10.5 mph 10.5 mph 98 % 0.5 in
16:05 2.2 °F 2.0 °F 1009.0 in SSE 10.5 mph 10.5 mph 98 % 0.5 in
16:10 2.1 °F 2.0 °F 1009.0 in SSE 10.5 mph 10.5 mph 98 % 0.5 in
16:15 2.1 °F 2.0 °F 1009.0 in SSE 10.5 mph 10.5 mph 98 % 0.5 in
16:20 2.2 °F 2.0 °F 1009.0 in SSE 10.5 mph 10.5 mph 98 % 0.5 in
16:25 2.2 °F 2.0 °F 1009.0 in SSE 10.5 mph 10.5 mph 98 % 0.5 in
16:30 2.1 °F 2.0 °F 1009.0 in SSE 10.5 mph 10.5 mph 98 % 0.5 in
16:35 2.0 °F 2.0 °F 1009.0 in SSE 10.5 mph 10.5 mph 98 % 0.8 in
16:40 2.0 °F 2.0 °F 1009.0 in SSE 10.5 mph 10.5 mph 98 % 0.5 in
16:45 1.9 °F 2.0 °F 1009.0 in SSE 10.5 mph 10.5 mph 98 % 0.5 in
16:50 2.0 °F 2.0 °F 1009.0 in SSE 10.5 mph 10.5 mph 98 % 0.5 in
16:55 2.1 °F 2.0 °F 1009.0 in SSE 10.5 mph 10.5 mph 98 % 0.3 in
17:00 2.3 °F 3.0 °F 1009.0 in SSE 10.5 mph 10.5 mph 98 % 0.3 in
17:06 2.4 °F 3.0 °F 1009.0 in SSW 6.9 mph 6.9 mph 98 % 0.3 in
17:11 2.4 °F 3.0 °F 1009.0 in SSW 6.9 mph 6.9 mph 98 % 0.3 in
17:16 2.4 °F 3.0 °F 1009.0 in SSW 6.9 mph 6.9 mph 98 % 0.3 in
17:21 2.3 °F 3.0 °F 1009.0 in SSW 6.9 mph 6.9 mph 98 % 0.3 in
17:26 2.2 °F 2.0 °F 1009.0 in SSW 6.9 mph 6.9 mph 98 % 0.3 in
17:31 2.1 °F 2.0 °F 1009.0 in SSW 6.9 mph 6.9 mph 98 % 0.0 in
17:36 2.0 °F 2.0 °F 1009.0 in SSW 6.9 mph 6.9 mph 97 % 0.0 in
17:41 1.9 °F 2.0 °F 1009.0 in SSW 6.9 mph 6.9 mph 98 % 0.0 in
17:46 1.8 °F 1.0 °F 1009.0 in SSW 6.9 mph 6.9 mph 97 % 0.0 in
17:51 1.7 °F 1.0 °F 1009.0 in SSW 6.9 mph 6.9 mph 97 % 0.0 in
17:56 1.7 °F 1.0 °F 1009.0 in SSW 6.9 mph 6.9 mph 97 % 0.0 in
18:01 1.7 °F 1.0 °F 1010.0 in SSW 1.8 mph 1.8 mph 97 % 0.0 in
18:06 1.7 °F 2.0 °F 1010.0 in SSW 1.8 mph 1.8 mph 98 % 0.0 in
18:12 1.7 °F 2.0 °F 1010.0 in SSW 1.8 mph 1.8 mph 98 % 0.0 in
18:17 1.7 °F 2.0 °F 1010.0 in SSW 1.8 mph 1.8 mph 98 % 0.0 in
18:22 1.7 °F 2.0 °F 1010.0 in SSW 1.8 mph 1.8 mph 98 % 0.0 in
18:27 1.7 °F 2.0 °F 1010.0 in SSW 1.8 mph 1.8 mph 98 % 0.0 in
18:32 1.7 °F 2.0 °F 1010.0 in SSW 1.8 mph 1.8 mph 98 % 0.0 in
18:37 1.6 °F 2.0 °F 1010.0 in SSW 1.8 mph 1.8 mph 98 % 0.0 in
18:42 1.6 °F 2.0 °F 1010.0 in SSW 1.8 mph 1.8 mph 98 % 0.0 in
18:47 1.6 °F 2.0 °F 1010.0 in SSW 1.8 mph 1.8 mph 98 % 0.0 in
18:52 1.5 °F 2.0 °F 1010.0 in SSW 1.8 mph 1.8 mph 98 % 0.0 in
18:57 1.4 °F 1.0 °F 1010.0 in SSW 1.8 mph 1.8 mph 98 % 0.0 in
19:02 1.3 °F 1.0 °F 1010.0 in Calm     97 % 0.0 in
19:07 1.1 °F 1.0 °F 1010.0 in Calm     97 % 0.3 in
19:12 1.0 °F 1.0 °F 1010.0 in Calm     97 % 0.3 in
19:17 0.9 °F 1.0 °F 1011.1 in Calm     97 % 0.3 in
19:22 0.9 °F 1.0 °F 1011.1 in Calm     97 % 0.3 in
19:27 1.0 °F 1.0 °F 1011.1 in Calm     97 % 0.3 in
19:32 1.1 °F 1.0 °F 1011.1 in Calm     98 % 0.3 in
19:37 1.3 °F 1.0 °F 1011.1 in Calm     98 % 0.3 in
19:42 1.4 °F 1.0 °F 1011.1 in Calm     98 % 0.3 in
19:47 1.5 °F 2.0 °F 1010.0 in West 9.0 mph 9.0 mph 98 % 0.3 in
19:52 1.6 °F 2.0 °F 1010.0 in West 9.0 mph 9.0 mph 98 % 0.3 in
19:57 1.8 °F 2.0 °F 1010.0 in West 9.0 mph 9.0 mph 98 % 0.3 in
20:02 2.0 °F 2.0 °F 1011.1 in West 9.0 mph 9.0 mph 98 % 0.3 in
20:07 2.0 °F 2.0 °F 1011.1 in West 9.0 mph 9.0 mph 98 % 0.3 in
20:12 2.0 °F 2.0 °F 1011.1 in West 9.0 mph 9.0 mph 98 % 0.3 in
20:18 2.1 °F 2.0 °F 1011.1 in West 9.0 mph 9.0 mph 98 % 0.3 in
20:23 2.0 °F 2.0 °F 1011.1 in West 9.0 mph 9.0 mph 98 % 0.3 in
20:28 2.1 °F 2.0 °F 1011.1 in West 9.0 mph 9.0 mph 98 % 0.3 in
20:33 2.1 °F 2.0 °F 1011.1 in West 9.0 mph 9.0 mph 98 % 0.5 in
20:38 2.2 °F 2.0 °F 1011.1 in West 9.0 mph 9.0 mph 98 % 0.5 in
20:43 2.2 °F 2.0 °F 1011.1 in West 9.0 mph 9.0 mph 98 % 0.8 in
20:48 2.2 °F 2.0 °F 1011.1 in West 9.0 mph 9.0 mph 98 % 0.8 in
20:53 2.2 °F 2.0 °F 1011.1 in West 9.0 mph 9.0 mph 98 % 1.3 in
20:58 2.2 °F 2.0 °F 1011.1 in West 9.0 mph 9.0 mph 98 % 1.3 in
21:03 2.2 °F 2.0 °F 1012.1 in West 9.0 mph 9.0 mph 98 % 1.3 in
21:08 2.1 °F 2.0 °F 1012.1 in West 9.0 mph 9.0 mph 98 % 0.8 in
21:13 2.0 °F 2.0 °F 1012.1 in West 9.0 mph 9.0 mph 98 % 1.3 in
21:18 2.0 °F 2.0 °F 1012.1 in West 9.0 mph 9.0 mph 98 % 1.3 in
21:23 2.0 °F 2.0 °F 1012.1 in West 9.0 mph 9.0 mph 98 % 1.3 in
21:28 2.0 °F 2.0 °F 1012.1 in West 9.0 mph 9.0 mph 98 % 1.3 in
21:33 2.0 °F 2.0 °F 1012.1 in West 9.0 mph 9.0 mph 98 % 1.0 in
21:38 1.9 °F 2.0 °F 1012.1 in Calm     98 % 1.0 in
21:43 1.9 °F 2.0 °F 1012.1 in Calm     98 % 0.8 in
21:48 1.9 °F 2.0 °F 1012.1 in Calm     98 % 0.3 in
21:54 1.9 °F 2.0 °F 1012.1 in Calm     98 % 0.3 in
21:59 1.9 °F 2.0 °F 1013.1 in Calm     98 % 0.3 in
22:04 1.8 °F 2.0 °F 1013.1 in Calm     98 % 0.3 in
22:09 1.8 °F 2.0 °F 1013.1 in Calm     98 % 0.3 in
22:14 1.9 °F 2.0 °F 1013.1 in West 2.6 mph 2.6 mph 98 % 0.3 in
22:19 2.1 °F 2.0 °F 1013.1 in West 2.6 mph 2.6 mph 98 % 0.3 in
22:24 2.3 °F 3.0 °F 1013.1 in West 2.6 mph 2.6 mph 98 % 0.3 in
22:29 2.3 °F 3.0 °F 1013.1 in West 2.6 mph 2.6 mph 98 % 0.3 in
22:34 2.4 °F 3.0 °F 1013.1 in West 2.6 mph 2.6 mph 98 % 0.3 in
22:39 2.4 °F 3.0 °F 1013.1 in West 2.6 mph 2.6 mph 98 % 0.8 in
22:44 2.5 °F 3.0 °F 1013.1 in West 6.9 mph 6.9 mph 98 % 1.5 in
22:49 2.5 °F 3.0 °F 1013.1 in West 6.9 mph 6.9 mph 98 % 1.5 in
22:54 2.5 °F 3.0 °F 1013.1 in West 6.9 mph 6.9 mph 98 % 1.5 in
22:59 2.6 °F 3.0 °F 1012.1 in West 6.9 mph 6.9 mph 98 % 1.5 in
23:04 2.6 °F 3.0 °F 1012.1 in West 6.9 mph 6.9 mph 98 % 1.5 in
23:09 2.7 °F 3.0 °F 1012.1 in West 6.9 mph 6.9 mph 98 % 1.5 in
23:14 2.8 °F 3.0 °F 1013.1 in West 6.9 mph 6.9 mph 98 % 1.5 in
23:19 2.8 °F 3.0 °F 1013.1 in West 6.9 mph 6.9 mph 98 % 1.5 in
23:24 2.7 °F 3.0 °F 1013.1 in West 6.9 mph 6.9 mph 98 % 1.5 in
23:29 2.7 °F 3.0 °F 1013.1 in West 6.9 mph 6.9 mph 98 % 1.5 in
23:34 2.7 °F 3.0 °F 1013.1 in West 6.9 mph 6.9 mph 98 % 1.3 in
23:39 2.7 °F 3.0 °F 1013.1 in West 6.9 mph 6.9 mph 98 % 0.8 in
23:44 2.6 °F 3.0 °F 1013.1 in West 6.9 mph 6.9 mph 98 % 0.8 in
23:49 2.6 °F 3.0 °F 1013.1 in West 6.9 mph 6.9 mph 98 % 0.8 in
23:54 2.6 °F 3.0 °F 1013.1 in West 6.9 mph 6.9 mph 98 % 1.0 in
23:59 2.5 °F 3.0 °F 1014.1 in West 6.9 mph 6.9 mph 98 % 1.0 in
Le Gheer Warneton
Courtoisie de Weather Underground - 2.25 mb

Mise a jour : 21/02/2018 02:34:11
Généré par Cumulus 1.9.4 (1099)